Salisbury, NC

1:09 PM EST on November 20, 2017 (GMT -0500)
Rowan County

Weather History for KRUQ - April, 2014

Change the Weather History Date:

Tuesday, April 15, 2014

  Actual Average (KCLT) Record (KCLT)
Temperature  
Mean Temperature 52 °F -  
Max Temperature 68 °F 72 °F 89 °F (1936)
Min Temperature 36 °F 51 °F 28 °F (1907)
Degree Days  
Heating Degree Days 12    
Growing Degree Days 2 (Base 50)    
Moisture  
Dew Point 52 °F    
Average Humidity 86    
Maximum Humidity 99    
Minimum Humidity 62    
Precipitation  
Precipitation 0.93 in - - ()
Sea Level Pressure  
Sea Level Pressure 29.77 in    
Wind  
Wind Speed 8 mph (WSW)    
Max Wind Speed 20 mph    
Max Gust Speed 28 mph    
Visibility 9 miles    
Events Rain    
Averages and records for this station are not official NWS values.
T = Trace of Precipitation, MM = Missing Value Source: NWS Daily Summary

Daily Weather History Graph

Daily Weather History Graph

Search for Another Location

Airport or City:

Trip Planner

Search our weather history database for the weather conditions in past years. The results will help you decide how hot, cold, wet, or windy it might be!

Date:

Astronomy

Apr. 15, 2014 Rise Set
Actual Time 6:49 AM EDT 7:55 PM EDT
Civil Twilight 6:23 AM EDT 8:21 PM EDT
Nautical Twilight 5:51 AM EDT 8:52 PM EDT
Astronomical Twilight 5:19 AM EDT 9:25 PM EDT
Moon 8:33 PM EDT (4/15) 6:56 AM EDT (4/15)
Length of Visible Light 13h 58m
Length of Day
13h 05m
Full, 100% of the Moon is Illuminated
Apr 15
Full
Apr 22
Last Quarter
Apr 29
New
May 6
First Quarter
May 14
Full

Hourly Weather History & Observations

Time (EDT) Temp. Windchill Dew Point Humidity Pressure Visibility Wind Dir Wind Speed Gust Speed Precip Events Conditions
12:15 AM 66.2 °F - 63.5 °F 91% 29.80 in 10.0 mi South 9.2 mph - N/A Rain Light Rain
12:35 AM 65.5 °F - 63.7 °F 94% 29.79 in 10.0 mi South 10.4 mph - 0.01 in Rain Rain
1:15 AM 65.3 °F - 63.7 °F 94% 29.78 in 10.0 mi South 10.4 mph - 0.01 in   Drizzle
1:35 AM 64.9 °F - 63.7 °F 96% 29.78 in 7.0 mi South 10.4 mph 18.4 mph 0.04 in Rain Rain
1:55 AM 65.3 °F - 63.7 °F 94% 29.77 in 10.0 mi South 10.4 mph 18.4 mph 0.04 in   Overcast
2:15 AM 65.3 °F - 63.7 °F 94% 29.76 in 10.0 mi SSW 3.5 mph - N/A   Overcast
2:35 AM 65.3 °F - 63.7 °F 94% 29.75 in 10.0 mi South 5.8 mph - N/A   Overcast
2:55 AM 64.9 °F - 63.7 °F 96% 29.74 in 5.0 mi Calm Calm - 0.04 in Rain Rain
3:15 AM 64.6 °F - 63.9 °F 98% 29.73 in 7.0 mi Calm Calm - 0.07 in Rain Light Rain
3:35 AM 64.4 °F - 63.9 °F 98% 29.73 in 5.0 mi Calm Calm - 0.11 in Rain Rain
3:55 AM 64.4 °F - 64.0 °F 99% 29.73 in 5.0 mi Calm Calm - 0.17 in Rain Heavy Rain
4:15 AM 64.4 °F - 63.9 °F 98% 29.73 in 5.0 mi SW 6.9 mph - 0.06 in Rain Rain
4:35 AM 63.5 °F - 62.6 °F 97% 29.73 in 3.0 mi SW 10.4 mph 20.7 mph 0.24 in Rain Rain
4:55 AM 63.1 °F - 62.2 °F 97% 29.72 in 7.0 mi South 8.1 mph - 0.34 in Rain Rain
5:15 AM 63.1 °F - 62.2 °F 97% 29.72 in 7.0 mi SSW 8.1 mph - 0.04 in Rain Light Rain
5:35 AM 63.1 °F - 62.2 °F 97% 29.72 in 10.0 mi SW 9.2 mph - 0.06 in Rain Rain
6:15 AM 63.5 °F - 62.1 °F 95% 29.70 in 10.0 mi SW 8.1 mph - N/A   Overcast
6:35 AM 63.5 °F - 61.9 °F 94% 29.70 in 10.0 mi SW 6.9 mph - N/A   Mostly Cloudy
6:55 AM 63.5 °F - 61.9 °F 94% 29.70 in 10.0 mi SW 6.9 mph - N/A   Mostly Cloudy
7:15 AM 63.0 °F - 61.7 °F 96% 29.70 in 10.0 mi SSW 6.9 mph - N/A   Overcast
7:35 AM 63.0 °F - 61.7 °F 96% 29.69 in 10.0 mi SSW 5.8 mph - N/A   Mostly Cloudy
7:55 AM 63.1 °F - 61.2 °F 93% 29.69 in 10.0 mi SSW 6.9 mph - N/A   Mostly Cloudy
8:15 AM 63.5 °F - 61.5 °F 93% 29.67 in 10.0 mi South 5.8 mph - N/A   Scattered Clouds
8:35 AM 63.9 °F - 62.1 °F 94% 29.68 in 10.0 mi South 6.9 mph - N/A   Scattered Clouds
8:55 AM 63.7 °F - 61.7 °F 93% 29.69 in 10.0 mi SSW 10.4 mph - N/A   Scattered Clouds
9:15 AM 64.0 °F - 61.0 °F 90% 29.69 in 10.0 mi SSW 10.4 mph - N/A   Mostly Cloudy
9:35 AM 64.4 °F - 61.0 °F 89% 29.69 in 10.0 mi SSW 10.4 mph 17.3 mph N/A   Overcast
9:55 AM 65.8 °F - 60.8 °F 84% 29.69 in 10.0 mi SSW 11.5 mph 20.7 mph N/A   Mostly Cloudy
10:15 AM 64.8 °F - 60.1 °F 85% 29.69 in 10.0 mi SSW 9.2 mph 18.4 mph N/A   Overcast
10:35 AM 63.9 °F - 60.3 °F 88% 29.70 in 10.0 mi SSW 6.9 mph - N/A Rain Rain
10:55 AM 64.0 °F - 59.9 °F 86% 29.70 in 10.0 mi SSW 11.5 mph 18.4 mph N/A   Overcast
11:15 AM 63.9 °F - 60.1 °F 87% 29.70 in 10.0 mi SSW 8.1 mph - N/A   Overcast
11:35 AM 63.7 °F - 60.3 °F 89% 29.69 in 10.0 mi South 9.2 mph - N/A   Overcast
11:55 AM 64.2 °F - 59.7 °F 85% 29.68 in 10.0 mi SSW 6.9 mph - N/A   Light Drizzle
12:35 PM 65.3 °F - 59.9 °F 83% 29.67 in 10.0 mi SSW 10.4 mph - N/A   Overcast
12:55 PM 64.9 °F - 59.9 °F 84% 29.67 in 10.0 mi SSW 8.1 mph - N/A   Overcast
1:35 PM 66.2 °F - 59.9 °F 80% 29.65 in 10.0 mi SSW 10.4 mph - N/A   Overcast
1:55 PM 66.2 °F - 60.3 °F 81% 29.64 in 7.0 mi SSW 11.5 mph 17.3 mph N/A   Overcast
2:15 PM 67.6 °F - 60.8 °F 79% 29.63 in 10.0 mi SSW 8.1 mph 18.4 mph N/A   Overcast
2:35 PM 68.7 °F - 60.6 °F 75% 29.63 in 10.0 mi SSW 12.7 mph 18.4 mph N/A   Overcast
2:55 PM 68.2 °F - 60.8 °F 77% 29.63 in 10.0 mi SW 4.6 mph 17.3 mph N/A   Overcast
3:15 PM 50.2 °F - 48.7 °F 95% 29.67 in 2.5 mi North 19.6 mph 27.6 mph 0.13 in Rain Heavy Rain
3:35 PM 47.8 °F - 46.9 °F 97% 29.70 in 10.0 mi North 17.3 mph 25.3 mph 0.16 in Rain Rain
3:55 PM 47.3 °F - 46.2 °F 96% 29.71 in 7.0 mi NNW 12.7 mph 19.6 mph 0.18 in Rain Light Rain
4:15 PM 46.8 °F - 45.9 °F 97% 29.72 in 7.0 mi North 10.4 mph - 0.01 in Rain Rain
4:35 PM 46.9 °F - 46.0 °F 97% 29.72 in 7.0 mi North 9.2 mph 19.6 mph 0.06 in Rain Rain
4:55 PM 46.6 °F - 45.7 °F 97% 29.72 in 7.0 mi North 9.2 mph 17.3 mph 0.09 in Rain Rain
5:15 PM 45.7 °F 40.6 °F 44.2 °F 95% 29.73 in 10.0 mi North 10.4 mph - 0.01 in Rain Rain
5:35 PM 44.6 °F 39.2 °F 42.8 °F 93% 29.75 in 10.0 mi North 10.4 mph 20.7 mph 0.01 in   Overcast
5:55 PM 44.8 °F 39.4 °F 41.9 °F 90% 29.76 in 10.0 mi North 10.4 mph 19.6 mph 0.01 in   Overcast
6:15 PM 45.0 °F 39.7 °F 40.5 °F 84% 29.78 in 10.0 mi North 10.4 mph 19.6 mph N/A   Overcast
6:35 PM 45.1 °F 39.1 °F 39.4 °F 80% 29.78 in 10.0 mi North 12.7 mph 17.3 mph N/A   Mostly Cloudy
6:55 PM 45.1 °F 40.3 °F 38.5 °F 77% 29.80 in 10.0 mi North 9.2 mph 16.1 mph N/A   Overcast
7:15 PM 44.4 °F 37.9 °F 36.1 °F 73% 29.81 in 10.0 mi North 13.8 mph 18.4 mph N/A   Mostly Cloudy
7:35 PM 44.2 °F 38.0 °F 35.2 °F 71% 29.84 in 10.0 mi NNW 12.7 mph 17.3 mph N/A   Mostly Cloudy
7:55 PM 43.5 °F 37.1 °F 33.3 °F 67% 29.87 in 10.0 mi North 12.7 mph 19.6 mph N/A   Mostly Cloudy
8:15 PM 42.8 °F 36.6 °F 32.2 °F 66% 29.89 in 10.0 mi North 11.5 mph 21.9 mph N/A   Scattered Clouds
8:35 PM 41.9 °F 35.9 °F 31.6 °F 67% 29.90 in 10.0 mi North 10.4 mph 19.6 mph N/A   Clear
8:55 PM 41.0 °F 35.2 °F 31.5 °F 69% 29.93 in 10.0 mi North 9.2 mph 17.3 mph N/A   Clear
9:15 PM 40.3 °F 34.4 °F 31.3 °F 70% 29.94 in 10.0 mi North 9.2 mph - N/A   Clear
9:35 PM 39.7 °F 34.9 °F 31.1 °F 71% 29.97 in 10.0 mi NNW 6.9 mph - N/A   Clear
9:55 PM 39.2 °F 34.2 °F 30.9 °F 72% 29.98 in 10.0 mi NNW 6.9 mph - N/A   Clear
10:15 PM 38.7 °F 36.3 °F 31.1 °F 74% 30.00 in 10.0 mi NNW 3.5 mph - N/A   Clear
10:35 PM 37.4 °F 33.8 °F 31.5 °F 79% 30.01 in 10.0 mi NNW 4.6 mph - N/A   Clear
10:55 PM 37.8 °F 31.3 °F 28.9 °F 71% 30.02 in 10.0 mi North 9.2 mph - N/A   Clear
11:15 PM 37.8 °F 31.8 °F 26.6 °F 64% 30.03 in 10.0 mi NNW 8.1 mph - N/A   Clear
11:35 PM 37.4 °F 31.4 °F 25.9 °F 63% 30.03 in 10.0 mi North 8.1 mph 18.4 mph N/A   Clear
11:55 PM 36.9 °F 29.1 °F 24.8 °F 62% 30.04 in 10.0 mi North 11.5 mph 16.1 mph N/A   Clear